Weather in Volchansk

Russia / Sverdlovsk Oblast     59°56′05″N   60°04′43″E
temp.,
°C
wind,
m/s
gust,
m/s
humid.,
%
clouds,
%
prec.,
mm/h
press.,
hPa
HPBL,
m
11 april, sun
sun1123:00+2e12100100 0.6 103390
02:00+1e12100100 1.1 103062
05:00+1ssw01100100 1.3 102877
08:00+2wsw1499100 1.1 1027159
11:00+4ssw2598100 1.4 1025143
14:00+6wsw3990100 0.0 1026579
17:00+5wsw3990100 0.0 1027559
20:00+5wsw4991100 0.0 1029604
12 april, mon
mon1223:00+3wsw4108182 0.0 1030304
02:00+1wsw3889100 0.0 1031163
05:00+1sw389082 0.0 1033151
08:00+3wsw48764 0.0 1034642
11:00+7wnw47470 0.0 10361317
14:00+8w57375 0.0 10361496
17:00+8w46420 0.0 10371227
20:00+4wsw38685 0.0 1038173
13 april, tue
tue1323:00+1wsw27775 0.0 1038120
02:000sw25785 0.0 103879
05:000sw247720 0.0 103866
08:00+4sw38685 0.0 1036214
11:00+10wsw47395 0.0 1034718
14:00+12wsw473680 0.0 10321033
17:00+13wsw4847100 0.0 1030915
20:00+8wsw3769100 0.0 1029166
14 april, wed
wed1423:00+7sw3108095 0.0 1028311
02:00+7wsw41284100 0.0 1026375
05:00+9wsw41286100 0.0 1025437
08:00+10sw41281100 0.0 1024565
11:00+13wsw51063100 0.0 1022838
14:00+16wsw610455 0.0 10211346
17:00+15wsw510434 0.0 10201309
20:00+11wsw411595 0.0 1019500
15 april, thu
thu1523:00+10wsw4146822 0.0 1017578
02:00+10wsw51468100 0.0 1015549
05:00+9wsw51275100 0.0 1014510
08:00+10wsw41177100 0.0 1014697
11:00+11w2575100 0.0 1015734
14:00+6ne3582100 0.1 1016369
17:00+4ne3689100 1.0 1016540
20:00+2nne3699100 3.3 1017253